Regional Weather Roundup
Issued by NWS

Home | Current Version | Previous Version | Text Only | Print | Product List | Glossary Off
Versions: 1 2 3 4 5 6 7 8 9 10 11 12 13 14 15 16 17 18 19 20 21 22 23 24 25 26 27 28 29 30 31 32 33 34 35 36 37 38 39 40 41 42 43 44 45 46 47 48 49 50

000
ASUS43 KOAX 011710
RWRNE

WEATHER ROUNDUP FOR NEBRASKA
NATIONAL WEATHER SERVICE OMAHA NE
1200 PM CDT SAT OCT 01 2016

NOTES: SATELLITE DATA IS BEING USED TO AUGMENT CLOUD COVER ABOVE
       12000 FEET.
       "FAIR" INDICATES FEW OR NO CLOUDS BELOW 12,000 FEET WITH NO
       SIGNIFICANT WEATHER AND/OR OBSTRUCTIONS TO VISIBILITY.

  * THESE STATIONS DO NOT REPORT WEATHER SUCH AS RAIN...SNOW OR FOG.

NEZ001>004-019>022-054>056-011800-
NEBRASKA PANHANDLE

CITY           SKY/WX    TMP DP  RH WIND       PRES   REMARKS
SCOTTSBLUFF    SUNNY     66  48  52 CALM      30.07F
ALLIANCE       SUNNY     69  48  47 VRB5      30.05F
CHADRON        SUNNY     71  48  43 VRB3      30.02F
KIMBALL        SUNNY     73  47  40 E3        30.12S
SIDNEY         SUNNY     74  47  38 S8        30.10S
$$

NEZ057>060-069>072-079>082-011800-
SOUTHWEST NEBRASKA

CITY           SKY/WX    TMP DP  RH WIND       PRES   REMARKS
NORTH PLATTE   SUNNY     69  49  48 S12       30.10F
IMPERIAL       SUNNY     69  48  47 S15       30.10F
LEXINGTON      CLOUDY    71  46  39 S13       30.12F
MCCOOK         SUNNY     70  49  47 S12       30.11F
OGALLALA       SUNNY     73  49  42 S10       30.08F
$$

NEZ005>010-023>029-035>040-094-011800-
NORTH CENTRAL NEBRASKA

CITY           SKY/WX    TMP DP  RH WIND       PRES   REMARKS
VALENTINE      CLOUDY    65  47  52 S12       30.05F
AINSWORTH      CLOUDY    72  51  48 S15       30.07F
BROKEN BOW     SUNNY     69  47  45 S14       30.11F
O`NEILL        CLOUDY    69  45  42 S10       30.12S
ORD            SUNNY     65  47  52 S5        30.11F
THEDFORD       CLOUDY    69  50  50 S14       30.09S
$$

NEZ041-046>049-061>064-073>077-083>087-011800-
SOUTH CENTRAL NEBRASKA

CITY           SKY/WX    TMP DP  RH WIND       PRES   REMARKS
GRAND ISLAND   MOSUNNY   65  47  52 SE9       30.14F
AURORA         CLOUDY    63  55  74 SE8       30.15S
HASTINGS       SUNNY     69  47  45 S6        30.14F
HEBRON         PTSUNNY   64  54  69 E3        30.14F
HOLDREGE       CLOUDY    69  44  40 S8        30.13S
KEARNEY *      SUNNY     70  46  43 S7G16     30.12F
YORK           CLOUDY    64  54  68 SE3       30.15S
$$

NEZ011>018-030>034-042>045-011800-
NORTHEAST NEBRASKA

CITY           SKY/WX    TMP DP  RH WIND       PRES   REMARKS
NORFOLK        MOSUNNY   67  51  56 SE7       30.13F
ALBION         MOSUNNY   65  53  65 SE7       30.13F
BLAIR          CLOUDY    63  56  78 NE5       30.13F
FREMONT        CLOUDY    63  55  73 CALM      30.14F
TEKAMAH        CLOUDY    63  55  75 NE7       30.14S
WAYNE          PTSUNNY   68  56  65 E6        30.14F
$$

NEZ050>053-065>068-078-088>093-011800-
SOUTHEAST NEBRASKA

CITY           SKY/WX    TMP DP  RH WIND       PRES   REMARKS
LINCOLN        MOSUNNY   65  54  67 SE6       30.14F
OMAHA EPPLEY   CLOUDY    64  55  72 N6        30.13F
BEATRICE       PTSUNNY   67  55  63 NE3       30.13F
FALLS CITY     CLOUDY    63  55  75 NW3       30.13F
NEBRASKA CITY  CLOUDY    63  53  70 CALM      30.14S
PLATTSMOUTH    CLOUDY    64  52  63 CALM      30.13F
$$

NEZ044-045-051>053-067-011800-
OMAHA AREA

CITY           SKY/WX    TMP DP  RH WIND       PRES   REMARKS
OMAHA EPPLEY   CLOUDY    64  55  72 N6        30.13F
BLAIR          CLOUDY    63  56  78 NE5       30.13F
FREMONT        CLOUDY    63  55  73 CALM      30.14F
MILLARD        CLOUDY    64  56  74 CALM      30.13F
OFFUTT AFB     CLOUDY    64  56  76 N5        30.12F
PLATTSMOUTH    CLOUDY    64  52  63 CALM      30.13F
WAHOO          CLOUDY    66  54  65 CALM      30.14F
$$



USA.gov is the U.S. government's official web portal to all federal, state and local government web resources and services.